Location: Huberhof
(49.2050°N, 7.4980°E)
Time: 01:29:24
(UTC+00:00)

Cosmos 2360 - Pass Details

Date: 29 October 2020
Orbit: 848 x 855 km, 70.8° (Epoch: 26 November)

Event Time Altitude Azimuth Distance (km) Brightness Sun altitude
Rises 17:52:59 0° 188° (S) 3,411 7.5 -16.8°
Reaches altitude 10° 17:55:30 10° 183° (S) 2,479 6.7 -17.2°
Maximum altitude 18:00:57 49° 110° (ESE) 1,092 4.4 -18.1°
Enters shadow 18:04:35 21° 45° (NE) 1,846 5.6 -18.7°
